[[{"header":{"parameterUnit":"m.s-1","parameterCategory":2,"la1":30.2991,"la2":30.254,"lo1":-89.0895,"lo2":-89.0444,"dy":0.0017,"dx":0.0017,"nx":28,"ny":28,"refTime":"2023-09-12T03:00:00:Z","depth":"0","parameterNumber":2,"parameterNumberName":"U-component_of_CURRENTS"},"data":[0,0,0,0,0,0,0,0,0,0,0,0,0,0,0,0,0,0,0,0,0,0,0,0,0,0,0,0,0,0,0,0,0,0,0,0,0,0,0,0,0,0,0,0,0,0,0,0,0,0,0,0,0,0,0,0,0,0,0.2491,0.2492,0,0.2503,0.2503,0.2502,0.2509,0.251,0.251,0.251,0.2499,0.2499,0.2498,0,0,0,0,0,0,0,0,0,0,0,0,0,0.2475,0.2475,0.2491,0.2492,0.2492,0.2503,0.2503,0.2502,0.2509,0.251,0.251,0.2511,0.2499,0.2499,0.2498,0,0,0,0,0,0,0,0,0,0,0,0,0,0.2481,0.2475,0.2491,0.25,0.2501,0.2503,0.2503,0.2502,0.2509,0.251,0.251,0.2511,0.25,0.2499,0.2498,0.2481,0,0,0.2495,0.2494,0,0,0,0,0,0,0,0,0.248,0.2481,0.2498,0.2499,0.25,0.2508,0.2493,0.2495,0.2509,0.2502,0.251,0.2511,0.2502,0.2501,0.2497,0.248,0.248,0.2495,0.2494,0.2494,0.2494,0,0,0,0,0,0,0,0.248,0.248,0.2492,0.2499,0.25,0.2503,0.2504,0.2493,0.2496,0.2503,0.2504,0.2511,0.2502,0.2498,0.2497,0.248,0.2495,0.2494,0.2493,0.2493,0.2457,0.2456,0,0,0,0,0,0,0.2485,0.248,0.2492,0.2493,0.2496,0.2503,0.2504,0.2502,0.2496,0.2497,0.2511,0.2511,0.2499,0.2498,0.2497,0.2492,0.2494,0.2493,0.2492,0.2457,0.2457,0.2456,0,0,0,0,0,0,0.2485,0.2486,0.2492,0.249,0.2492,0.2503,0.2501,0.2502,0.2502,0.2503,0.2503,0.2511,0.25,0.2498,0.2491,0.2491,0.2493,0.2492,0.2458,0.2457,0.2456,0.2473,0,0,0,0,0,0,0.2484,0.2485,0.248,0.249,0.2492,0.2494,0.2501,0.2502,0.2507,0.2509,0.2503,0.2502,0.25,0.2492,0.249,0.249,0.2491,0.2458,0.2457,0.2457,0.2473,0.2473,0.2473,0,0,0,0,0,0.2483,0.2474,0.2479,0.2481,0.2486,0.2494,0.2495,0.2503,0.2507,0.2504,0.2503,0.2503,0.2486,0.2491,0.2489,0.2488,0.2458,0.2458,0.2457,0.2473,0.2473,0.2473,0,0,0,0,0,0,0.2464,0.2475,0.248,0.2475,0.2486,0.2497,0.2498,0.2502,0.2498,0.25,0.2498,0.2497,0.2492,0.2483,0.2489,0.2474,0.2471,0.247,0.2485,0.2485,0.2485,0.2481,0.249,0,0,0,0,0,0.2458,0.2456,0.2469,0.2468,0.2473,0.2485,0.2488,0.2495,0.2498,0.2497,0.2495,0.2489,0.2484,0.248,0.2473,0.2463,0.2513,0.2459,0.2459,0.246,0.2454,0.2508,0.2513,0.2453,0.2453,0.2453,0,0,0.2451,0.2459,0.2457,0.2464,0.2474,0.2479,0.2487,0.2495,0.2494,0.2496,0.249,0.249,0.2481,0.2475,0.2471,0.2469,0.2519,0.2458,0.2459,0.2453,0.2507,0.2514,0.2519,0.2453,0.2453,0.2453,0,0,0.2444,0.2444,0.2443,0.2451,0.2468,0.2475,0.2478,0.2488,0.2487,0.2483,0.2486,0.2487,0.2473,0.2472,0.2468,0.2461,0.2518,0.2458,0.2455,0.2508,0.2514,0.252,0.2668,0.2686,0.2457,0.2457,0.2457,0,0.2437,0.2436,0.2444,0.245,0.2458,0.2473,0.2477,0.2475,0.248,0.2482,0.2481,0.2479,0.2471,0.2472,0.2466,0.2462,0.2535,0.2459,0.2511,0.2517,0.2522,0.2672,0.2692,0.2457,0.2457,0.2457,0.2457,0,0.243,0.2432,0.2434,0.2445,0.2452,0.2458,0.2466,0.2469,0.2472,0.2475,0.2478,0.2473,0.2482,0.2471,0.2462,0.2489,0.2549,0.2511,0.2517,0.253,0.2687,0.2708,0.2458,0.2458,0.2458,0.2458,0,0,0.2411,0.2425,0.2426,0.2437,0.245,0.246,0.2459,0.2467,0.2483,0.2473,0.2497,0.2469,0.2487,0.2483,0.2484,0.2505,0.2625,0.2521,0.2524,0.2683,0.2829,0.2921,0.2953,0.26,0.2602,0.2603,0.2953,0,0.2406,0.2416,0.2419,0.2432,0.2443,0.2455,0.2462,0.2471,0.2481,0.2508,0.25,0.2527,0.2488,0.2516,0.2527,0.2599,0.2668,0.2539,0.2779,0.2788,0.2877,0.2973,0.2838,0.314,0.2974,0.2977,0.298,0,0.2399,0.2409,0.2419,0.2444,0.245,0.2457,0.2489,0.2496,0.2526,0.2542,0.2561,0.2581,0.263,0.2586,0.2732,0.266,0.2747,0.2794,0.2809,0.2891,0.2915,0.3082,0.3184,0.3038,0.3012,0.3009,0.3007,0,0.2398,0.241,0.2421,0.2427,0.2455,0.2463,0.2478,0.2506,0.254,0.2585,0.2647,0.2678,0.2762,0.2813,0.2933,0.2848,0.3123,0.3027,0.3206,0.3219,0.3147,0.3149,0.3135,0.3137,0.3136,0.3135,0.3134,0,0.2395,0.2405,0.2423,0.2433,0.2462,0.2473,0.2514,0.2535,0.2596,0.2668,0.2681,0.2784,0.2816,0.2971,0.3016,0.3234,0.3221,0.3251,0.3307,0.3159,0.3157,0.3059,0.2998,0.3148,0.3146,0.3143,0.3141,0,0.2397,0.2405,0.243,0.2456,0.2467,0.2491,0.2552,0.259,0.2653,0.2762,0.2799,0.293,0.3144,0.3235,0.3399,0.3411,0.3469,0.363,0.3513,0.3546,0.3507,0.3454,0.3457,0.3357,0.387,0.3875,0.3878,0,0.239,0.2404,0.2451,0.2471,0.2483,0.252,0.2556,0.2613,0.2673,0.2867,0.294,0.3181,0.3337,0.3662,0.3738,0.3918,0.3702,0.3888,0.3652,0.3532,0.3513,0.3321,0.3217,0.3611,0.3612,0.3613,0.3613,0,0.2375,0.2404,0.2424,0.2475,0.2511,0.2551,0.261,0.2673,0.2775,0.2904,0.3107,0.3251,0.3588,0.3708,0.3958,0.4013,0.3668,0.3915,0.3771,0.3313,0.3118,0.3039,0.3427,0.3621,0.362,0.362,0.3619,0.3619,0.2357,0.2377,0.2409,0.2456,0.2501,0.2544,0.256,0.266,0.2774,0.2936,0.3152,0.3333,0.3561,0.3882,0.393,0.3884,0.3826,0.3713,0.3682,0.3516,0.331,0.3786,0.4032,0.4033,0.4035,0.4036,0.4037,0,0.2306,0.2334,0.238,0.2416,0.2441,0.2483,0.2562,0.2574,0.2685,0.2904,0.3081,0.3321,0.3474,0.3603,0.3705,0.3613,0.3368,0.3499,0.3106,0.303,0.3448,0.3318,0.3438,0.3438,0.3438,0.3438,0.3439,0.3439,0.2272,0.2286,0.2319,0.2326,0.2356,0.2345,0.237,0.243,0.2544,0.2719,0.2855,0.3032,0.3259,0.3414,0.3355,0.3288,0.2979,0.2914,0.288,0.3073,0.3084,0.3094,0.2949,0.2991,0.299,0.2263,0.2257,0.2253]},{"header":{"parameterUnit":"m.s-1","parameterCategory":2,"la1":30.2991,"la2":30.254,"lo1":-89.0895,"lo2":-89.0444,"dy":0.0017,"dx":0.0017,"nx":28,"ny":28,"refTime":"2023-09-12T03:00:00:Z","depth":"0","parameterNumber":3,"parameterNumberName":"V-component_of_CURRENTS"},"data":[0,0,0,0,0,0,0,0,0,0,0,0,0,0,0,0,0,0,0,0,0,0,0,0,0,0,0,0,0,0,0,0,0,0,0,0,0,0,0,0,0,0,0,0,0,0,0,0,0,0,0,0,0,0,0,0,0,0,-0.0557,-0.0558,0,-0.0656,-0.0657,-0.0658,-0.0706,-0.0706,-0.0706,-0.0706,-0.0793,-0.0796,-0.0798,0,0,0,0,0,0,0,0,0,0,0,0,0,-0.0466,-0.0467,-0.0556,-0.0558,-0.0559,-0.0655,-0.0657,-0.0658,-0.0706,-0.0706,-0.0706,-0.0706,-0.0792,-0.0795,-0.0798,0,0,0,0,0,0,0,0,0,0,0,0,0,-0.0529,-0.0468,-0.0556,-0.0594,-0.0599,-0.0655,-0.0657,-0.0658,-0.0706,-0.0706,-0.0706,-0.0706,-0.0792,-0.0795,-0.0798,-0.0821,0,0,-0.0809,-0.0811,0,0,0,0,0,0,0,0,-0.0526,-0.0533,-0.0588,-0.0592,-0.0597,-0.0668,-0.0657,-0.0712,-0.0706,-0.0665,-0.0706,-0.0706,-0.075,-0.0757,-0.0776,-0.0825,-0.0829,-0.0809,-0.0812,-0.0813,-0.0814,0,0,0,0,0,0,0,-0.0521,-0.0529,-0.0596,-0.0589,-0.0595,-0.0626,-0.0635,-0.0668,-0.0707,-0.0669,-0.0673,-0.0684,-0.0753,-0.0773,-0.0779,-0.083,-0.0809,-0.0813,-0.0815,-0.0816,-0.0906,-0.0906,0,0,0,0,0,0,-0.0506,-0.0524,-0.0593,-0.0599,-0.056,-0.0628,-0.0637,-0.0645,-0.0707,-0.0716,-0.0683,-0.0685,-0.0767,-0.0774,-0.0782,-0.0791,-0.0813,-0.0816,-0.0818,-0.0905,-0.0906,-0.0906,0,0,0,0,0,0,-0.0504,-0.0511,-0.0589,-0.0564,-0.0576,-0.0629,-0.0638,-0.0647,-0.0668,-0.0718,-0.0727,-0.0694,-0.0767,-0.0777,-0.0814,-0.0795,-0.0818,-0.0821,-0.0905,-0.0906,-0.0906,-0.0823,0,0,0,0,0,0,-0.05,-0.0509,-0.0511,-0.0563,-0.0577,-0.0617,-0.0639,-0.0649,-0.0675,-0.0678,-0.073,-0.0738,-0.0768,-0.0808,-0.0817,-0.0801,-0.0824,-0.0905,-0.0905,-0.0906,-0.0825,-0.082,-0.0816,0,0,0,0,0,-0.0497,-0.0499,-0.051,-0.0519,-0.0577,-0.0617,-0.0627,-0.0665,-0.0675,-0.0683,-0.072,-0.0737,-0.0818,-0.0812,-0.0822,-0.0806,-0.0905,-0.0905,-0.0906,-0.0827,-0.0821,-0.0816,0,0,0,0,0,0,-0.0464,-0.0506,-0.0519,-0.0535,-0.0569,-0.0625,-0.0637,-0.0662,-0.0699,-0.0699,-0.0745,-0.0756,-0.0781,-0.0812,-0.0805,-0.0836,-0.0862,-0.0865,-0.0799,-0.0794,-0.0789,-0.075,-0.0827,0,0,0,0,0,-0.0456,-0.0466,-0.0512,-0.0524,-0.0538,-0.0586,-0.0607,-0.063,-0.067,-0.0686,-0.0722,-0.076,-0.0792,-0.0807,-0.0844,-0.0862,-0.0858,-0.086,-0.0856,-0.0851,-0.0829,-0.0834,-0.0827,-0.0908,-0.0908,-0.0908,0,0,-0.0447,-0.0471,-0.0477,-0.0517,-0.0546,-0.0552,-0.0598,-0.0623,-0.0623,-0.0689,-0.0701,-0.0748,-0.0797,-0.0816,-0.0829,-0.0838,-0.082,-0.0852,-0.0847,-0.0827,-0.0834,-0.0826,-0.0818,-0.0908,-0.0908,-0.0908,0,0,-0.0425,-0.0453,-0.0448,-0.047,-0.0506,-0.0533,-0.0536,-0.0584,-0.0601,-0.0625,-0.0669,-0.0704,-0.0755,-0.0782,-0.0803,-0.0798,-0.08,-0.0813,-0.0751,-0.0757,-0.0749,-0.0743,-0.069,-0.068,-0.0806,-0.0806,-0.0806,0,-0.0408,-0.0404,-0.0454,-0.0451,-0.0454,-0.0515,-0.0499,-0.053,-0.0582,-0.0588,-0.0615,-0.0684,-0.0732,-0.0745,-0.0746,-0.0782,-0.0768,-0.0763,-0.0747,-0.0741,-0.0735,-0.0684,-0.0673,-0.0802,-0.0802,-0.0803,-0.0803,0,-0.0378,-0.0371,-0.0371,-0.0378,-0.0394,-0.0393,-0.0432,-0.0448,-0.0474,-0.0504,-0.053,-0.0599,-0.0633,-0.0661,-0.0701,-0.069,-0.0684,-0.0741,-0.075,-0.0721,-0.0669,-0.0659,-0.0796,-0.0798,-0.0799,-0.08,0,0,-0.0329,-0.0342,-0.0336,-0.0313,-0.0346,-0.0347,-0.0351,-0.0363,-0.0346,-0.0411,-0.0386,-0.0469,-0.0509,-0.0535,-0.0594,-0.0606,-0.0556,-0.0647,-0.0649,-0.0572,-0.0516,-0.0459,-0.0443,-0.0611,-0.0609,-0.0609,-0.048,0,-0.0277,-0.0235,-0.0264,-0.0215,-0.0188,-0.0236,-0.0225,-0.025,-0.0279,-0.0276,-0.0352,-0.0358,-0.046,-0.046,-0.0495,-0.0539,-0.0533,-0.0582,-0.0574,-0.0572,-0.0509,-0.0432,-0.0446,-0.033,-0.0471,-0.0469,-0.0468,0,-0.0217,-0.0194,-0.013,-0.0102,-0.0095,-0.0078,-0.0054,-0.0056,-0.0089,-0.0108,-0.0149,-0.0208,-0.0231,-0.0324,-0.0367,-0.0391,-0.0438,-0.0479,-0.0477,-0.0444,-0.0499,-0.0392,-0.0307,-0.0526,-0.0454,-0.0455,-0.0456,0,-0.0119,-0.0091,-0.0025,-0.0017,-0.0006,0.0021,0.0026,0.0004,0.0033,0.0013,0.0048,-0.0036,-0.0017,-0.012,-0.0211,-0.0281,-0.0232,-0.0347,-0.0334,-0.0328,-0.0346,-0.0345,-0.0454,-0.0366,-0.0366,-0.0367,-0.0367,0,-0.0029,0.0027,0.0033,0.0075,0.016,0.0125,0.0206,0.0191,0.0205,0.0281,0.0156,0.0225,0.0034,0.0022,-0.0115,-0.0147,-0.0153,-0.0277,-0.0287,-0.0314,-0.0312,-0.0511,-0.063,-0.0362,-0.0363,-0.0364,-0.0365,0,0.0085,0.0085,0.0168,0.0198,0.0216,0.0282,0.0336,0.0393,0.0389,0.0496,0.0512,0.0466,0.0465,0.03,0.019,0.0035,-0.0135,-0.0065,-0.0046,-0.0057,-0.0288,-0.0399,-0.0421,-0.0501,-0.0034,-0.0032,-0.003,0,0.0152,0.0207,0.0273,0.033,0.0356,0.0434,0.0496,0.0497,0.057,0.0668,0.0752,0.0777,0.083,0.0705,0.0438,0.0262,0.0021,0.0106,-0.0061,-0.0254,-0.0389,-0.0463,-0.0538,-0.0038,-0.0037,-0.0035,-0.0034,0,0.0282,0.0304,0.0363,0.0474,0.0557,0.0652,0.0744,0.0829,0.0872,0.0984,0.1149,0.1208,0.1095,0.0927,0.0663,0.0475,-0.0038,0.013,-0.0104,-0.0401,-0.0456,-0.0553,-0.0135,-0.0022,-0.0023,-0.0024,-0.0025,-0.0025,0.0375,0.044,0.0509,0.0617,0.0719,0.0858,0.095,0.1071,0.1231,0.1418,0.1466,0.1607,0.1291,0.0936,0.0666,0.0102,0.0098,-0.0126,-0.0234,-0.0282,-0.0401,0.0094,0.0201,0.0201,0.0201,0.0201,0.0201,0,0.047,0.0532,0.0642,0.0767,0.0897,0.0926,0.1103,0.1209,0.1423,0.1651,0.1817,0.1771,0.1366,0.0882,0.0164,-0.0225,-0.042,-0.0461,-0.0646,-0.0702,-0.0296,-0.0346,-0.0312,-0.0311,-0.0311,-0.0311,-0.0311,-0.0311,0.0524,0.0629,0.0676,0.0886,0.0985,0.1152,0.1257,0.1442,0.1619,0.1908,0.2036,0.2114,0.1716,0.0434,-0.0491,-0.0713,-0.1009,-0.1009,-0.115,-0.0988,-0.0969,-0.0951,-0.103,-0.114,-0.1141,-0.1546,-0.1551,-0.1554]}],[{"header":{"parameterUnit":"m.s-1","parameterCategory":2,"la1":30.2991,"la2":30.254,"lo1":-89.0895,"lo2":-89.0444,"dy":0.0017,"dx":0.0017,"nx":28,"ny":28,"refTime":"2023-09-12T03:00:00:Z","depth":"2","parameterNumber":2,"parameterNumberName":"U-component_of_CURRENTS"},"data":[0,0,0,0,0,0,0,0,0,0,0,0,0,0,0,0,0,0,0,0,0,0,0,0,0,0,0,0,0,0,0,0,0,0,0,0,0,0,0,0,0,0,0,0,0,0,0,0,0,0,0,0,0,0,0,0,0,0,0.2249,0.2251,0,0.2309,0.2308,0.2307,0.2287,0.2288,0.2289,0.229,0.2397,0.2399,0.2401,0,0,0,0,0,0,0,0,0,0,0,0,0,0.2211,0.2209,0.2249,0.2251,0.2254,0.2309,0.2308,0.2306,0.2287,0.2288,0.2289,0.229,0.2396,0.2398,0.2401,0,0,0,0,0,0,0,0,0,0,0,0,0,0.2223,0.2208,0.2248,0.2268,0.2272,0.231,0.2308,0.2306,0.2287,0.2288,0.2289,0.229,0.2395,0.2398,0.2401,0.2397,0,0,0.2411,0.2412,0,0,0,0,0,0,0,0,0.2222,0.2221,0.2262,0.2267,0.2272,0.2312,0.2335,0.2347,0.2287,0.2257,0.229,0.2291,0.2387,0.239,0.2366,0.2402,0.2406,0.2411,0.2413,0.2414,0.2415,0,0,0,0,0,0,0,0.2221,0.2219,0.2249,0.2266,0.2272,0.2309,0.2308,0.2335,0.2297,0.226,0.2264,0.2307,0.2386,0.2363,0.2369,0.2408,0.2411,0.2414,0.2416,0.2417,0.2551,0.2552,0,0,0,0,0,0,0.2253,0.2217,0.2248,0.2253,0.2275,0.2309,0.2308,0.2279,0.2296,0.2306,0.2306,0.2306,0.2357,0.2365,0.2373,0.2457,0.2414,0.2417,0.2419,0.2549,0.2551,0.2553,0,0,0,0,0,0,0.225,0.2251,0.2246,0.226,0.2265,0.231,0.2278,0.228,0.2324,0.2335,0.2341,0.2359,0.2358,0.2369,0.2436,0.2458,0.2419,0.2422,0.2547,0.255,0.2552,0.257,0,0,0,0,0,0,0.2247,0.2248,0.224,0.2259,0.2266,0.233,0.2279,0.2281,0.2356,0.2357,0.2382,0.2388,0.236,0.2432,0.2439,0.2462,0.2424,0.2545,0.2548,0.2551,0.2567,0.2573,0.2578,0,0,0,0,0,0.2244,0.2247,0.2236,0.2243,0.2249,0.2337,0.2342,0.2364,0.2359,0.2399,0.2394,0.2391,0.2457,0.2436,0.2444,0.2468,0.2544,0.2547,0.2551,0.2565,0.2572,0.2577,0,0,0,0,0,0,0.2219,0.2248,0.2236,0.2241,0.2315,0.2344,0.2389,0.2408,0.2429,0.2431,0.2417,0.2424,0.2489,0.249,0.2467,0.2518,0.2499,0.2504,0.2506,0.2513,0.2518,0.2487,0.2427,0,0,0,0,0,0.2212,0.2222,0.2273,0.2288,0.2326,0.2364,0.2404,0.243,0.2463,0.2473,0.2484,0.2491,0.2498,0.252,0.2533,0.2572,0.259,0.2594,0.2599,0.2604,0.2586,0.2607,0.2611,0.2565,0.2565,0.2565,0,0,0.2219,0.2233,0.2243,0.2288,0.2327,0.2385,0.2386,0.2478,0.2507,0.2485,0.2522,0.2528,0.2519,0.2542,0.2571,0.2553,0.2644,0.2608,0.2611,0.2591,0.2611,0.2615,0.2618,0.2568,0.2567,0.2567,0,0,0.2262,0.2242,0.2282,0.234,0.2437,0.2448,0.2501,0.2561,0.257,0.2617,0.2591,0.2613,0.2642,0.2614,0.2605,0.266,0.2677,0.2683,0.2673,0.2694,0.2697,0.2699,0.2796,0.2807,0.2675,0.2675,0.2675,0,0.2281,0.2289,0.2322,0.2385,0.2424,0.2488,0.2545,0.257,0.264,0.2633,0.2646,0.2643,0.2657,0.2643,0.2644,0.2668,0.2707,0.2644,0.2697,0.27,0.2702,0.28,0.2811,0.2676,0.2676,0.2676,0.2676,0,0.2344,0.2371,0.2416,0.2471,0.252,0.2596,0.2641,0.2676,0.2686,0.2692,0.2712,0.2705,0.2689,0.2707,0.2683,0.2701,0.2739,0.2708,0.2673,0.2707,0.281,0.2822,0.2678,0.2677,0.2677,0.2677,0,0,0.2344,0.2435,0.2452,0.2471,0.2562,0.2601,0.2645,0.2676,0.2684,0.2724,0.2714,0.2714,0.2708,0.2698,0.269,0.27,0.2775,0.2705,0.2706,0.2789,0.2884,0.284,0.2849,0.2747,0.2748,0.2748,0.2975,0,0.2389,0.2469,0.2501,0.2573,0.2614,0.2646,0.2667,0.2699,0.2713,0.2727,0.2714,0.2724,0.2708,0.2704,0.2709,0.2761,0.2795,0.2721,0.2849,0.2854,0.2797,0.2855,0.2597,0.2767,0.2986,0.2988,0.2989,0,0.244,0.2472,0.253,0.2571,0.259,0.2624,0.2621,0.2661,0.269,0.2701,0.27,0.2712,0.2739,0.2714,0.2811,0.2767,0.282,0.286,0.2869,0.2813,0.2827,0.2756,0.278,0.3009,0.3007,0.3006,0.3004,0,0.2393,0.249,0.2504,0.2532,0.2594,0.2588,0.2609,0.264,0.2666,0.2693,0.2728,0.274,0.279,0.282,0.2926,0.2867,0.3061,0.299,0.3012,0.3014,0.2808,0.2788,0.3043,0.3043,0.3043,0.3042,0.3041,0,0.2408,0.2429,0.2481,0.2493,0.2498,0.2549,0.2558,0.2584,0.2638,0.2695,0.2714,0.2782,0.2814,0.2929,0.2969,0.3068,0.311,0.3024,0.305,0.2817,0.2797,0.299,0.2981,0.3051,0.3049,0.3047,0.3045,0,0.2368,0.2413,0.2434,0.2472,0.2484,0.2482,0.2545,0.2563,0.2634,0.2714,0.2735,0.2853,0.2995,0.3072,0.3187,0.3156,0.323,0.3255,0.3025,0.3014,0.3161,0.315,0.3259,0.3259,0.3259,0.3259,0.3259,0,0.2347,0.2357,0.2396,0.2403,0.242,0.244,0.2463,0.2539,0.2589,0.2778,0.2826,0.2989,0.3073,0.3255,0.3232,0.3298,0.3338,0.3091,0.2873,0.3159,0.3175,0.3164,0.3154,0.2662,0.2657,0.2653,0.265,0,0.2293,0.2309,0.2319,0.2341,0.2362,0.2391,0.2445,0.2484,0.2614,0.2693,0.2859,0.2942,0.3114,0.3034,0.3113,0.3104,0.3035,0.3007,0.3375,0.2627,0.2607,0.2619,0.2627,0.2614,0.2618,0.262,0.2622,0.2624,0.2242,0.2236,0.2258,0.2269,0.2297,0.2327,0.2328,0.2387,0.2451,0.2522,0.2736,0.2763,0.2822,0.2758,0.2742,0.2724,0.2891,0.2727,0.2734,0.2747,0.2616,0.2594,0.2581,0.2585,0.2587,0.259,0.2592,0,0.2181,0.2184,0.2186,0.2199,0.2195,0.2247,0.2304,0.2246,0.2252,0.2348,0.2401,0.2247,0.2229,0.2336,0.2238,0.2246,0.2174,0.2165,0.2031,0.2071,0.2105,0.1934,0.1723,0.172,0.1717,0.1715,0,0,0.2151,0.2128,0.2126,0.2092,0.2103,0.2074,0.2087,0.1957,0.196,0.188,0.1882,0.202,0.2214,0.1888,0.1882,0.179,0.19,0.1725,0.2426,0.2305,0.2334,0.2445,0.223,0,0,0,0,0]},{"header":{"parameterUnit":"m.s-1","parameterCategory":2,"la1":30.2991,"la2":30.254,"lo1":-89.0895,"lo2":-89.0444,"dy":0.0017,"dx":0.0017,"nx":28,"ny":28,"refTime":"2023-09-12T03:00:00:Z","depth":"2","parameterNumber":3,"parameterNumberName":"V-component_of_CURRENTS"},"data":[0,0,0,0,0,0,0,0,0,0,0,0,0,0,0,0,0,0,0,0,0,0,0,0,0,0,0,0,0,0,0,0,0,0,0,0,0,0,0,0,0,0,0,0,0,0,0,0,0,0,0,0,0,0,0,0,0,0,0.0298,0.0296,0,0.0209,0.0208,0.0208,0.0126,0.0125,0.0124,0.0122,-0.0082,-0.0086,-0.009,0,0,0,0,0,0,0,0,0,0,0,0,0,0.028,0.0282,0.0298,0.0296,0.0295,0.0209,0.0208,0.0208,0.0127,0.0125,0.0123,0.0122,-0.0081,-0.0086,-0.0091,0,0,0,0,0,0,0,0,0,0,0,0,0,0.0254,0.0282,0.0298,0.024,0.0234,0.0209,0.0208,0.0207,0.0127,0.0125,0.0123,0.0121,-0.0079,-0.0085,-0.0091,-0.0087,0,0,-0.011,-0.0113,0,0,0,0,0,0,0,0,0.0256,0.0256,0.025,0.0244,0.0237,0.0172,0.0127,0.0102,0.0128,0.0173,0.0122,0.012,-0.0009,-0.0021,-0.0025,-0.0096,-0.0105,-0.0111,-0.0114,-0.0117,-0.0119,0,0,0,0,0,0,0,0.0258,0.0258,0.0267,0.0249,0.0241,0.0178,0.0174,0.0122,0.0096,0.0169,0.0161,0.0145,-0.0013,-0.0018,-0.0031,-0.0108,-0.0111,-0.0116,-0.012,-0.0122,-0.0311,-0.0312,0,0,0,0,0,0,0.0268,0.0261,0.027,0.0264,0.0236,0.0181,0.0176,0.0199,0.0099,0.0081,0.0146,0.0141,-0.0007,-0.0023,-0.0038,-0.0131,-0.0117,-0.0123,-0.0126,-0.031,-0.0311,-0.0313,0,0,0,0,0,0,0.0269,0.0272,0.0274,0.0253,0.0249,0.0184,0.021,0.0198,0.0147,0.0083,0.0063,0.0101,-0.0009,-0.003,-0.0106,-0.0137,-0.0126,-0.0131,-0.0308,-0.031,-0.0312,-0.0258,0,0,0,0,0,0,0.027,0.0274,0.029,0.0256,0.025,0.0242,0.0211,0.0198,0.0141,0.0132,0.0038,0.002,-0.0012,-0.0096,-0.0112,-0.0145,-0.0136,-0.0307,-0.0309,-0.0311,-0.0258,-0.0258,-0.0258,0,0,0,0,0,0.027,0.0299,0.0293,0.0292,0.0279,0.0241,0.0232,0.018,0.014,0.0125,0.0063,0.002,-0.0124,-0.0101,-0.012,-0.0155,-0.0305,-0.0308,-0.0311,-0.0258,-0.0258,-0.0258,0,0,0,0,0,0,0.0299,0.0292,0.0284,0.0311,0.027,0.0225,0.0205,0.016,0.0102,0.0077,0.0015,-0.0007,-0.0088,-0.013,-0.0103,-0.022,-0.0227,-0.0234,-0.018,-0.0181,-0.0181,-0.015,-0.0141,0,0,0,0,0,0.0318,0.0335,0.0306,0.032,0.0303,0.0247,0.022,0.0177,0.0122,0.0092,0.0018,-0.0056,-0.0104,-0.015,-0.0205,-0.0263,-0.0281,-0.0304,-0.0304,-0.0303,-0.0293,-0.0331,-0.0331,-0.0323,-0.0323,-0.0322,0,0,0.0321,0.0327,0.0329,0.0325,0.0292,0.0272,0.0225,0.0174,0.0141,0.0078,-0.0004,-0.0062,-0.012,-0.018,-0.0222,-0.0226,-0.0317,-0.0307,-0.0305,-0.0295,-0.0334,-0.0334,-0.0334,-0.0325,-0.0324,-0.0324,0,0,0.0334,0.0352,0.036,0.0339,0.029,0.0263,0.0238,0.0165,0.0118,0.0047,-0.0005,-0.007,-0.0175,-0.0203,-0.0229,-0.0265,-0.0312,-0.0313,-0.0289,-0.0326,-0.0326,-0.0326,-0.0344,-0.0346,-0.0314,-0.0314,-0.0314,0,0.0328,0.0364,0.0348,0.0347,0.0328,0.0257,0.0241,0.0197,0.0097,0.0064,0.0017,-0.0113,-0.0172,-0.0209,-0.0224,-0.0261,-0.029,-0.0278,-0.0321,-0.0322,-0.0323,-0.0341,-0.0345,-0.0312,-0.0312,-0.0312,-0.0312,0,0.0355,0.0364,0.0362,0.0355,0.0332,0.0303,0.0248,0.0196,0.0121,0.007,-0.0018,-0.0087,-0.0159,-0.0198,-0.0222,-0.0267,-0.0286,-0.031,-0.031,-0.032,-0.034,-0.0344,-0.0308,-0.0309,-0.031,-0.031,0,0,0.0365,0.0379,0.037,0.0372,0.0333,0.0314,0.0274,0.0225,0.0193,0.0084,0.0043,-0.0049,-0.0107,-0.014,-0.0194,-0.0231,-0.0264,-0.0279,-0.0282,-0.0273,-0.0342,-0.0339,-0.0344,-0.0304,-0.0305,-0.0306,-0.0349,0,0.0374,0.0399,0.0395,0.0383,0.0384,0.0336,0.0316,0.0258,0.0189,0.0129,0.005,-0.0016,-0.0079,-0.0119,-0.0166,-0.0238,-0.0276,-0.025,-0.0353,-0.0356,-0.0333,-0.0348,-0.0313,-0.0348,-0.0353,-0.0354,-0.0354,0,0.0391,0.0412,0.0424,0.0419,0.0413,0.0394,0.0359,0.0326,0.0251,0.0197,0.0123,0.0046,-0.002,-0.0079,-0.0192,-0.018,-0.0259,-0.0315,-0.0318,-0.0334,-0.0361,-0.0344,-0.0356,-0.0361,-0.0361,-0.036,-0.036,0,0.042,0.042,0.044,0.0438,0.0427,0.0414,0.0394,0.0336,0.0323,0.0235,0.0218,0.0107,0.0063,-0.0053,-0.0169,-0.0198,-0.0282,-0.0333,-0.0398,-0.0398,-0.0396,-0.0394,-0.0414,-0.0414,-0.0414,-0.0414,-0.0414,0,0.0448,0.045,0.0453,0.0464,0.048,0.0445,0.0441,0.0407,0.0368,0.0385,0.0252,0.0257,0.0062,-0.0012,-0.0139,-0.0261,-0.0259,-0.0388,-0.0412,-0.0377,-0.0374,-0.041,-0.0409,-0.0415,-0.0415,-0.0415,-0.0414,0,0.0477,0.0478,0.0502,0.0501,0.0498,0.0506,0.05,0.0512,0.0457,0.048,0.0461,0.0363,0.027,0.0101,-0.0068,-0.0202,-0.0329,-0.0372,-0.0307,-0.0322,-0.0435,-0.0431,-0.0476,-0.0476,-0.0476,-0.0477,-0.0477,0,0.0506,0.0522,0.0542,0.0568,0.0566,0.0573,0.0599,0.0561,0.0591,0.0577,0.0617,0.0516,0.0489,0.0242,-0.0011,-0.0233,-0.0276,-0.0367,-0.0424,-0.0424,-0.0442,-0.0438,-0.0434,-0.0399,-0.0399,-0.0398,-0.0398,0,0.0565,0.0563,0.0597,0.065,0.068,0.0724,0.0753,0.08,0.0792,0.0828,0.0889,0.0859,0.0604,0.0376,0.0033,-0.012,-0.0338,-0.0368,-0.0382,-0.0386,-0.0355,-0.0372,-0.037,-0.0395,-0.0395,-0.0395,-0.0395,-0.0395,0.061,0.0649,0.0691,0.0739,0.0795,0.0879,0.0937,0.0995,0.1082,0.1121,0.1094,0.1038,0.0728,0.0291,0.0031,-0.0275,-0.0292,-0.0422,-0.0423,-0.0423,-0.0404,-0.0375,-0.0413,-0.0414,-0.0414,-0.0415,-0.0415,0,0.0666,0.0708,0.0775,0.0848,0.0936,0.0934,0.1054,0.1115,0.1253,0.1264,0.1277,0.0996,0.0712,0.0383,-0.006,-0.0338,-0.0367,-0.0421,-0.04,-0.0401,-0.0403,-0.0382,-0.0386,-0.0387,-0.0387,-0.0388,0,0,0.0699,0.077,0.0805,0.0955,0.1013,0.1143,0.1225,0.1305,0.1346,0.1368,0.1306,0.1152,0.0783,0.046,0.0101,-0.0131,-0.0203,-0.018,-0.0175,-0.0108,-0.0106,-0.0379,-0.0345,0,0,0,0,0]}],[{"header":{"parameterUnit":"m.s-1","parameterCategory":2,"la1":30.2991,"la2":30.254,"lo1":-89.0895,"lo2":-89.0444,"dy":0.0017,"dx":0.0017,"nx":28,"ny":28,"refTime":"2023-09-12T03:00:00:Z","depth":"4","parameterNumber":2,"parameterNumberName":"U-component_of_CURRENTS"},"data":[0,0,0,0,0,0,0,0,0,0,0,0,0,0,0,0,0,0,0,0,0,0,0,0,0,0,0,0,0,0,0,0,0,0,0,0,0,0,0,0,0,0,0,0,0,0,0,0,0,0,0,0,0,0,0,0,0,0,0.1033,0.1034,0,0.1091,0.1092,0.1092,0.1147,0.1147,0.1148,0.1148,0.1203,0.1204,0.1204,0,0,0,0,0,0,0,0,0,0,0,0,0,0.0956,0.0957,0.1033,0.1034,0.1034,0.1091,0.1092,0.1093,0.1146,0.1147,0.1148,0.1149,0.1202,0.1203,0.1204,0,0,0,0,0,0,0,0,0,0,0,0,0,0.0999,0.0957,0.1033,0.1068,0.1072,0.1091,0.1092,0.1093,0.1146,0.1147,0.1148,0.1149,0.1202,0.1203,0.1205,0.1192,0,0,0.1208,0.1209,0,0,0,0,0,0,0,0,0.0997,0.1002,0.1062,0.1066,0.107,0.1113,0.1085,0.1126,0.1146,0.1118,0.1149,0.115,0.1171,0.1175,0.1184,0.1194,0.1197,0.1208,0.1209,0.121,0.121,0,0,0,0,0,0,0,0.0994,0.1,0.1056,0.1063,0.1068,0.1077,0.1084,0.1093,0.1138,0.112,0.1125,0.1131,0.1174,0.1183,0.1186,0.1198,0.1208,0.1209,0.121,0.1211,0.1306,0.1308,0,0,0,0,0,0,0.0986,0.0997,0.1054,0.1058,0.1035,0.1077,0.1086,0.1098,0.1138,0.1146,0.113,0.1133,0.118,0.1184,0.1188,0.1255,0.121,0.1211,0.1211,0.1305,0.1307,0.1309,0,0,0,0,0,0,0.0984,0.0991,0.1052,0.1028,0.1037,0.1078,0.1091,0.1098,0.1133,0.1146,0.1153,0.116,0.1181,0.1186,0.1231,0.1255,0.1211,0.1212,0.1303,0.1305,0.1308,0.1339,0,0,0,0,0,0,0.0982,0.099,0.1008,0.1028,0.1038,0.1078,0.109,0.1099,0.1134,0.1139,0.1173,0.1178,0.1182,0.1229,0.1232,0.1256,0.1213,0.13,0.1304,0.1307,0.1336,0.1342,0.1348,0,0,0,0,0,0.0979,0.0996,0.1008,0.1016,0.1057,0.1079,0.1085,0.1117,0.1134,0.1152,0.1187,0.1178,0.1253,0.1231,0.1234,0.1259,0.1299,0.1303,0.1307,0.1333,0.1341,0.1348,0,0,0,0,0,0,0.0973,0.1003,0.1018,0.1044,0.1067,0.1089,0.1109,0.1129,0.1169,0.1182,0.1197,0.1204,0.1257,0.1255,0.1231,0.13,0.1276,0.128,0.1295,0.1302,0.1308,0.132,0.1214,0,0,0,0,0,0.0978,0.1,0.1025,0.1048,0.1061,0.1089,0.1106,0.1127,0.1158,0.1178,0.1207,0.1239,0.1271,0.1285,0.1313,0.134,0.1349,0.1361,0.1367,0.1372,0.1387,0.1435,0.1447,0.1322,0.1322,0.1322,0,0,0.0982,0.1001,0.1015,0.1049,0.107,0.1095,0.1103,0.1135,0.1169,0.1175,0.1241,0.1265,0.1287,0.133,0.1352,0.1333,0.141,0.1377,0.1381,0.1394,0.1441,0.1453,0.1463,0.1325,0.1324,0.1324,0,0,0.0986,0.1018,0.1033,0.1056,0.109,0.1112,0.1126,0.1164,0.1199,0.1252,0.1274,0.1319,0.1361,0.1386,0.14,0.1456,0.1448,0.1463,0.1494,0.1541,0.1551,0.156,0.1568,0.1577,0.1457,0.1457,0.1457,0,0.0988,0.1016,0.1041,0.1061,0.1089,0.1123,0.1149,0.1185,0.124,0.1272,0.1282,0.1379,0.139,0.1449,0.147,0.147,0.1484,0.1458,0.1548,0.1557,0.1566,0.1572,0.1582,0.1459,0.1459,0.1459,0.1459,0,0.1001,0.1031,0.1043,0.1086,0.1118,0.1147,0.1195,0.1243,0.129,0.1325,0.1409,0.1442,0.1499,0.1506,0.1504,0.1574,0.1558,0.1554,0.1524,0.1581,0.1583,0.1593,0.1462,0.1461,0.1461,0.146,0,0,0.0979,0.1039,0.1046,0.1075,0.1137,0.1164,0.1231,0.1295,0.1349,0.1412,0.1483,0.1542,0.157,0.159,0.16,0.1632,0.1691,0.162,0.1621,0.1618,0.1774,0.1673,0.1674,0.1706,0.1709,0.1711,0.1742,0,0.0981,0.102,0.106,0.1117,0.1141,0.1207,0.1267,0.1335,0.1399,0.1476,0.1529,0.1605,0.1599,0.1638,0.1671,0.1677,0.1724,0.1682,0.1729,0.1729,0.1626,0.1685,0.1719,0.1749,0.1752,0.1753,0.1754,0,0.0974,0.1006,0.1056,0.1137,0.1158,0.1207,0.1318,0.1382,0.1486,0.1536,0.1618,0.1667,0.1726,0.1728,0.1784,0.1757,0.1788,0.1795,0.1796,0.1702,0.1649,0.1688,0.1773,0.1771,0.177,0.1769,0.1768,0,0.0937,0.1003,0.105,0.1078,0.1175,0.1228,0.1296,0.1401,0.147,0.1592,0.1649,0.1725,0.1786,0.1821,0.1853,0.1823,0.1916,0.187,0.182,0.1811,0.1875,0.1865,0.1967,0.1967,0.1967,0.1967,0.1967,0,0.0916,0.0952,0.104,0.1069,0.1136,0.122,0.1326,0.1392,0.1514,0.1585,0.1688,0.1738,0.1824,0.1885,0.1884,0.1874,0.195,0.184,0.1825,0.1884,0.1875,0.1881,0.187,0.1968,0.1968,0.1968,0.1968,0,0.0863,0.0921,0.0975,0.1082,0.1119,0.1174,0.1331,0.1392,0.1522,0.1618,0.1666,0.1772,0.182,0.1905,0.1965,0.1914,0.1916,0.1927,0.1987,0.1972,0.1758,0.1749,0.1805,0.1802,0.1799,0.1797,0.1795,0,0.0825,0.0857,0.0971,0.1002,0.1055,0.1164,0.1223,0.1371,0.1436,0.1603,0.1615,0.1747,0.1806,0.1805,0.1874,0.1899,0.1909,0.19,0.1822,0.1768,0.1749,0.1744,0.1738,0.1791,0.179,0.179,0.1789,0,0.0764,0.0828,0.0871,0.0938,0.0999,0.1089,0.1189,0.1226,0.1391,0.1518,0.1564,0.1618,0.1691,0.1717,0.1816,0.1813,0.1868,0.1872,0.1875,0.1802,0.1752,0.1734,0.1732,0.178,0.1782,0.1782,0.1783,0,0.0703,0.072,0.0794,0.0845,0.0921,0.0976,0.1057,0.1139,0.1232,0.1416,0.1409,0.1538,0.1657,0.1674,0.1714,0.1752,0.17,0.1639,0.1653,0.1664,0.1607,0.1522,0.148,0,0,0,0,0,0.0641,0.066,0.0695,0.0741,0.0821,0.0887,0.1007,0.1094,0.1241,0.1244,0.1345,0.1407,0.1478,0.1519,0.1528,0.1618,0.1693,0.1617,0.1625,0.1731,0.1741,0.1689,0,0,0,0,0,0,0.0592,0.0628,0.0654,0.0658,0.0686,0.0767,0.085,0.095,0.0982,0.1136,0.1184,0.1316,0.1402,0.1469,0.1496,0.1517,0.1493,0.1709,0.1705,0.1725,0.1735,0.1743,0.1693,0,0,0,0,0]},{"header":{"parameterUnit":"m.s-1","parameterCategory":2,"la1":30.2991,"la2":30.254,"lo1":-89.0895,"lo2":-89.0444,"dy":0.0017,"dx":0.0017,"nx":28,"ny":28,"refTime":"2023-09-12T03:00:00:Z","depth":"4","parameterNumber":3,"parameterNumberName":"V-component_of_CURRENTS"},"data":[0,0,0,0,0,0,0,0,0,0,0,0,0,0,0,0,0,0,0,0,0,0,0,0,0,0,0,0,0,0,0,0,0,0,0,0,0,0,0,0,0,0,0,0,0,0,0,0,0,0,0,0,0,0,0,0,0,0,0.038,0.038,0,0.0371,0.0371,0.0371,0.0348,0.0347,0.0347,0.0347,0.0322,0.0322,0.0321,0,0,0,0,0,0,0,0,0,0,0,0,0,0.0362,0.0362,0.038,0.038,0.038,0.0371,0.0371,0.0371,0.0348,0.0347,0.0347,0.0346,0.0322,0.0322,0.0321,0,0,0,0,0,0,0,0,0,0,0,0,0,0.0362,0.0362,0.038,0.0369,0.0368,0.0371,0.0371,0.0371,0.0348,0.0347,0.0347,0.0346,0.0322,0.0322,0.0321,0.033,0,0,0.032,0.032,0,0,0,0,0,0,0,0,0.0362,0.0362,0.037,0.0369,0.0368,0.0361,0.0355,0.0356,0.0348,0.0354,0.0347,0.0346,0.0335,0.0333,0.0331,0.0328,0.0327,0.032,0.0319,0.0319,0.0319,0,0,0,0,0,0,0,0.0362,0.0363,0.0375,0.037,0.0369,0.0358,0.0358,0.0355,0.0346,0.0354,0.0352,0.0353,0.0334,0.0332,0.033,0.0327,0.032,0.0319,0.0319,0.0319,0.0316,0.0316,0,0,0,0,0,0,0.0367,0.0363,0.0376,0.0375,0.0365,0.0359,0.0359,0.0363,0.0347,0.0344,0.0354,0.0352,0.0333,0.0331,0.0329,0.0333,0.0319,0.0319,0.0319,0.0316,0.0316,0.0316,0,0,0,0,0,0,0.0367,0.0368,0.0376,0.0369,0.037,0.036,0.0365,0.0363,0.0365,0.0347,0.0344,0.0359,0.0332,0.033,0.0331,0.0332,0.0319,0.0318,0.0316,0.0316,0.0316,0.0343,0,0,0,0,0,0,0.0366,0.0368,0.0376,0.037,0.037,0.0386,0.0366,0.0363,0.0367,0.0365,0.0351,0.0347,0.0332,0.0331,0.033,0.0331,0.0318,0.0315,0.0316,0.0316,0.0342,0.0344,0.0346,0,0,0,0,0,0.0366,0.0379,0.0377,0.0379,0.0381,0.0386,0.0386,0.0376,0.0368,0.0374,0.0361,0.0348,0.0332,0.0332,0.033,0.033,0.0315,0.0316,0.0316,0.0341,0.0344,0.0346,0,0,0,0,0,0,0.0372,0.0378,0.0375,0.0389,0.0391,0.0383,0.0391,0.0383,0.0379,0.0378,0.0356,0.0353,0.0351,0.0341,0.034,0.033,0.032,0.032,0.0339,0.0341,0.0344,0.0337,0.0317,0,0,0,0,0,0.0379,0.0394,0.0392,0.0405,0.0408,0.0401,0.0403,0.0399,0.0393,0.0391,0.038,0.0366,0.0352,0.0347,0.0338,0.0339,0.0303,0.0336,0.0338,0.034,0.0334,0.0285,0.0282,0.0318,0.0318,0.0318,0,0,0.0386,0.0392,0.0399,0.0408,0.0409,0.0417,0.0401,0.0411,0.0414,0.039,0.0393,0.0377,0.0354,0.035,0.0348,0.0342,0.0311,0.0341,0.0343,0.0335,0.0285,0.0282,0.0278,0.0318,0.0318,0.0318,0,0,0.0405,0.0412,0.0428,0.0434,0.0442,0.0437,0.0443,0.0441,0.0437,0.0442,0.0417,0.04,0.0394,0.0367,0.0353,0.0363,0.0325,0.0365,0.037,0.0323,0.032,0.0316,0.0261,0.0253,0.0365,0.0365,0.0365,0,0.041,0.043,0.0434,0.0449,0.0454,0.0448,0.046,0.0458,0.0456,0.0446,0.0449,0.0412,0.0396,0.0367,0.0368,0.0366,0.0332,0.0363,0.0325,0.0321,0.0316,0.0261,0.0251,0.0366,0.0366,0.0366,0.0366,0,0.0438,0.0455,0.0466,0.0481,0.0487,0.05,0.0496,0.05,0.0495,0.048,0.0462,0.0439,0.0411,0.0404,0.039,0.0352,0.0335,0.0334,0.0317,0.0314,0.0257,0.0246,0.0368,0.0368,0.0367,0.0367,0,0,0.0441,0.0477,0.0481,0.0492,0.0505,0.051,0.0518,0.0511,0.0503,0.0497,0.0477,0.0449,0.0428,0.0411,0.0388,0.0348,0.0289,0.0332,0.0329,0.0275,0.0177,0.0154,0.0139,0.0283,0.0281,0.028,0.0147,0,0.0458,0.0492,0.0505,0.0529,0.0541,0.0541,0.0547,0.0538,0.0524,0.0505,0.0468,0.0448,0.0434,0.0422,0.0379,0.0311,0.0262,0.0324,0.019,0.0185,0.0163,0.0126,0.0275,0.0138,0.0136,0.0134,0.0132,0,0.0474,0.0495,0.0527,0.0548,0.0553,0.0566,0.0562,0.0569,0.0537,0.0526,0.0491,0.0462,0.0401,0.0399,0.0272,0.0314,0.0246,0.0194,0.0187,0.0147,0.0142,0.0142,0.0112,0.0113,0.0115,0.0116,0.0118,0,0.0467,0.0505,0.0531,0.0542,0.0567,0.0577,0.0586,0.057,0.0574,0.0537,0.0524,0.0452,0.0417,0.0327,0.0223,0.0244,0.0077,0.0091,0.0001,-0.0002,0.0048,0.0054,-0.0006,-0.0006,-0.0006,-0.0005,-0.0005,0,0.0473,0.049,0.0534,0.0549,0.0571,0.0587,0.0607,0.0596,0.0591,0.0582,0.0537,0.0496,0.0399,0.0299,0.0207,0.006,0.0058,-0.0017,-0.0043,0.0063,0.0071,0.004,0.0047,-0.001,-0.0009,-0.0008,-0.0007,0,0.0454,0.0489,0.0517,0.0557,0.0573,0.0588,0.0633,0.064,0.0634,0.062,0.0612,0.0517,0.0382,0.0271,0.0107,0.0037,-0.0097,-0.0146,-0.0042,-0.0057,-0.0141,-0.0131,-0.0266,-0.0268,-0.027,-0.0271,-0.0272,0,0.044,0.0462,0.052,0.0543,0.0565,0.0605,0.0633,0.0656,0.0667,0.062,0.0601,0.048,0.0406,0.0155,0.003,-0.0159,-0.0172,-0.0242,-0.0177,-0.016,-0.0171,-0.0158,-0.0146,-0.0275,-0.0276,-0.0276,-0.0276,0,0.0413,0.0446,0.0471,0.0529,0.0568,0.0619,0.066,0.067,0.0689,0.0681,0.0591,0.0466,0.0305,0.0133,-0.0011,-0.0145,-0.0196,-0.026,-0.0256,-0.0196,-0.0172,-0.0179,-0.0165,-0.0282,-0.0282,-0.0281,-0.0281,0,0.0384,0.0399,0.0455,0.0501,0.0561,0.0617,0.0642,0.0659,0.0676,0.0642,0.0594,0.0437,0.0352,0.0135,-0.0013,-0.0135,-0.0154,-0.0174,-0.0175,-0.017,-0.0092,-0.0044,-0.0155,0,0,0,0,0,0.0357,0.0387,0.0424,0.0483,0.055,0.06,0.0654,0.068,0.0696,0.0645,0.0635,0.049,0.0265,0.0145,0.0021,-0.0054,-0.0186,-0.0207,-0.021,-0.0316,-0.0309,-0.0235,0,0,0,0,0,0,0.0339,0.0378,0.0412,0.0478,0.0524,0.0601,0.0647,0.0655,0.0637,0.0626,0.0508,0.0462,0.0241,0.0347,0.0019,-0.0025,-0.0044,-0.0308,-0.0311,-0.032,-0.0313,-0.0308,-0.023,0,0,0,0,0]}]]